DW6494 Weather Reports


Display with metric or nautical units.
time (UTC)temp
F
wind
direction
speed
MPH
gust
MPH
rain 1hr
in
rain 24hr
in
rain mn
in
humidity
%
barometer
mb
20260901014530 60 153 9.0 13.0 0.00 0.00 0.00 80 1024.0
20260901014029 60 155 4.0 7.0 0.00 0.00 0.00 81 1024.0
20260901013530 60 88 3.0 4.0 0.00 0.00 0.00 81 1024.0
20260901013032 60 97 2.0 7.0 0.00 0.00 0.00 80 1024.0
20260901012529 60 147 9.0 11.0 0.00 0.00 0.00 79 1024.0
20260901012030 60 96 4.0 6.0 0.00 0.00 0.00 78 1024.0
20260901011530 60 88 4.0 7.0 0.00 0.00 0.00 78 1024.0
20260901011029 61 124 6.0 11.0 0.00 0.00 0.00 76 1024.0
20260901010530 61 127 7.0 10.0 0.00 0.00 0.00 76 1024.0
20260901010030 61 154 3.0 5.0 0.00 0.00 0.00 74 1024.0
20260901005529 62 134 0.0 2.0 0.00 0.00 0.00 77 1024.0
20260901005029 62 157 0.0 0.0 0.00 0.00 0.00 77 1024.0
20260901004530 62 127 1.0 2.0 0.00 0.00 0.00 76 1025.0
20260901004030 62 128 1.0 3.0 0.00 0.00 0.00 76 1025.0
20260901003529 63 360 0.0 0.0 0.00 0.00 0.00 74 1024.0
20260901003030 63 153 0.0 0.0 0.00 0.00 0.00 75 1025.0
20260901002530 63 159 4.0 7.0 0.00 0.00 0.00 70 1024.0
20260901002029 63 207 4.0 5.0 0.00 0.00 0.00 71 1024.0
20260901001529 63 162 7.0 9.0 0.00 0.00 0.00 70 1025.0
20260901001029 63 146 7.0 14.0 0.00 0.00 0.00 71 1025.0
20260901000529 64 149 10.0 18.0 0.00 0.00 0.00 72 1025.0
20260901000029 65 158 13.0 19.0 0.00 0.00 0.00 69 1025.0
20260831235530 65 136 8.0 17.0 0.00 0.00 0.00 65 1025.0
20260831235034 66 148 10.0 16.0 0.00 0.00 0.00 62 1025.0
20260831234531 67 145 14.0 21.0 0.00 0.00 0.00 60 1025.0
20260831234029 68 148 11.0 19.0 0.00 0.00 0.00 60 1024.0
20260831233529 68 126 6.0 9.0 0.00 0.00 0.00 57 1024.0
20260831233029 68 81 2.0 5.0 0.00 0.00 0.00 57 1024.0
20260831232530 69 280 5.0 10.0 0.00 0.00 0.00 56 1024.0
20260831232029 70 306 5.0 8.0 0.00 0.00 0.00 52 1024.0
20260831231530 71 293 6.0 16.0 0.00 0.00 0.00 50 1023.0
20260831231029 72 116 4.0 8.0 0.00 0.00 0.00 48 1023.0
20260831230529 73 323 5.0 7.0 0.00 0.00 0.00 47 1023.0
20260831230030 74 2 6.0 11.0 0.00 0.00 0.00 44 1023.0
20260831225529 75 146 8.0 20.0 0.00 0.00 0.00 50 1022.0
20260831225029 76 154 14.0 23.0 0.00 0.00 0.00 43 1022.0
20260831224529 76 148 12.0 18.0 0.00 0.00 0.00 38 1021.0
20260831224030 76 153 11.0 16.0 0.00 0.00 0.00 36 1021.0
20260831223529 76 157 10.0 16.0 0.00 0.00 0.00 37 1021.0
20260831223029 76 158 10.0 17.0 0.00 0.00 0.00 39 1021.0
20260831222529 76 149 11.0 21.0 0.00 0.00 0.00 44 1021.0
20260831222029 76 163 9.0 18.0 0.00 0.00 0.00 47 1021.0
20260831221529 77 145 14.0 22.0 0.00 0.00 0.00 46 1020.0
20260831221029 77 122 5.0 9.0 0.00 0.00 0.00 46 1020.0
20260831220531 77 116 7.0 10.0 0.00 0.00 0.00 45 1020.0
20260831220030 77 153 11.0 14.0 0.00 0.00 0.00 45 1020.0
20260831215529 77 110 3.0 8.0 0.00 0.00 0.00 47 1020.0
20260831215029 77 136 3.0 9.0 0.00 0.00 0.00 51 1020.0
20260831214529 77 151 7.0 15.0 0.00 0.00 0.00 54 1020.0
20260831214029 78 131 5.0 9.0 0.00 0.00 0.00 54 1020.0
20260831213529 78 64 4.0 6.0 0.00 0.00 0.00 55 1020.0
20260831213029 79 100 5.0 10.0 0.00 0.00 0.00 53 1021.0
20260831212529 80 158 5.0 13.0 0.00 0.00 0.00 50 1021.0
20260831212029 81 153 7.0 16.0 0.00 0.00 0.00 46 1020.0
20260831211530 81 161 7.0 13.0 0.00 0.00 0.00 42 1020.0
20260831211029 81 161 8.0 13.0 0.00 0.00 0.00 35 1020.0
20260831210530 81 162 9.0 12.0 0.00 0.00 0.00 34 1020.0
20260831210029 81 164 9.0 12.0 0.00 0.00 0.00 34 1020.0
20260831205529 81 139 7.0 9.0 0.00 0.00 0.00 35 1020.0
20260831205031 81 145 10.0 13.0 0.00 0.00 0.00 33 1020.0
20260831204529 81 170 7.0 11.0 0.00 0.00 0.00 34 1021.0
20260831204029 81 130 12.0 14.0 0.00 0.00 0.00 33 1021.0
20260831203530 81 160 8.0 13.0 0.00 0.00 0.00 34 1021.0
20260831203029 80 141 11.0 16.0 0.00 0.00 0.00 34 1021.0
20260831202529 80 149 11.0 16.0 0.00 0.00 0.00 35 1021.0
20260831202029 80 145 6.0 10.0 0.00 0.00 0.00 36 1021.0
20260831201531 80 149 10.0 16.0 0.00 0.00 0.00 36 1021.0
20260831201030 80 143 7.0 9.0 0.00 0.00 0.00 37 1021.0
20260831200531 80 147 4.0 7.0 0.00 0.00 0.00 39 1021.0
20260831200030 80 139 6.0 9.0 0.00 0.00 0.00 39 1021.0
20260831195528 80 138 10.0 12.0 0.00 0.00 0.00 36 1021.0
20260831195029 80 140 11.0 16.0 0.00 0.00 0.00 35 1021.0
20260831194530 80 142 5.0 7.0 0.00 0.00 0.00 42 1021.0
20260831194029 80 166 2.0 5.0 0.00 0.00 0.00 43 1021.0
20260831193529 79 124 5.0 7.0 0.00 0.00 0.00 45 1021.0
20260831193029 79 157 8.0 13.0 0.00 0.00 0.00 42 1021.0
20260831192529 78 115 8.0 11.0 0.00 0.00 0.00 42 1022.0
20260831192030 78 85 4.0 6.0 0.00 0.00 0.00 46 1022.0
20260831191529 78 139 6.0 9.0 0.00 0.00 0.00 47 1022.0
20260831191029 77 126 5.0 5.0 0.00 0.00 0.00 48 1022.0
20260831190529 76 68 5.0 8.0 0.00 0.00 0.00 50 1022.0
20260831190029 76 80 4.0 7.0 0.00 0.00 0.00 50 1022.0
20260831185530 75 141 5.0 6.0 0.00 0.00 0.00 52 1022.0
20260831185029 75 159 7.0 9.0 0.00 0.00 0.00 51 1022.0
20260831184533 75 152 9.0 13.0 0.00 0.00 0.00 50 1022.0
20260831184029 75 150 9.0 13.0 0.00 0.00 0.00 51 1022.0
20260831183529 75 157 3.0 5.0 0.00 0.00 0.00 54 1022.0
20260831183029 74 107 6.0 8.0 0.00 0.00 0.00 52 1022.0
20260831182529 74 124 0.0 1.0 0.00 0.00 0.00 54 1022.0
20260831182029 74 163 6.0 7.0 0.00 0.00 0.00 54 1022.0
20260831181530 74 159 7.0 9.0 0.00 0.00 0.00 54 1022.0
20260831181029 74 153 10.0 13.0 0.00 0.00 0.00 52 1023.0
20260831180529 75 158 4.0 6.0 0.00 0.00 0.00 51 1023.0
20260831180029 75 163 5.0 10.0 0.00 0.00 0.00 51 1023.0
20260831175529 75 178 6.0 9.0 0.00 0.00 0.00 49 1023.0
20260831175029 74 95 5.0 6.0 0.00 0.00 0.00 52 1023.0
20260831174529 74 342 0.0 0.0 0.00 0.00 0.00 51 1023.0
20260831174029 74 152 3.0 5.0 0.00 0.00 0.00 53 1023.0
20260831173532 74 146 6.0 9.0 0.00 0.00 0.00 52 1023.0
20260831173029 73 66 1.0 3.0 0.00 0.00 0.00 54 1023.0
20260831172529 72 114 1.0 2.0 0.00 0.00 0.00 55 1023.0
20260831172029 72 181 3.0 4.0 0.00 0.00 0.00 55 1023.0
20260831171529 71 138 4.0 5.0 0.00 0.00 0.00 57 1023.0
20260831171029 71 144 7.0 8.0 0.00 0.00 0.00 58 1023.0
20260831170530 71 157 8.0 10.0 0.00 0.00 0.00 56 1023.0
20260831170029 71 153 1.0 4.0 0.00 0.00 0.00 59 1023.0
20260831165529 71 160 2.0 5.0 0.00 0.00 0.00 56 1023.0
20260831165029 72 54 1.0 2.0 0.00 0.00 0.00 57 1023.0
20260831164529 71 360 0.0 0.0 0.00 0.00 0.00 56 1023.0
20260831164029 71 341 2.0 5.0 0.00 0.00 0.00 56 1023.0
20260831163529 71 60 1.0 4.0 0.00 0.00 0.00 57 1023.0
20260831163029 71 143 7.0 9.0 0.00 0.00 0.00 54 1023.0
20260831162529 72 57 3.0 5.0 0.00 0.00 0.00 56 1023.0
20260831162030 72 179 1.0 3.0 0.00 0.00 0.00 55 1023.0
20260831161529 73 169 4.0 5.0 0.00 0.00 0.00 54 1023.0
20260831161030 73 341 0.0 0.0 0.00 0.00 0.00 50 1023.0
20260831160529 72 16 1.0 3.0 0.00 0.00 0.00 55 1023.0
20260831160030 72 19 3.0 5.0 0.00 0.00 0.00 58 1022.0
20260831155529 72 162 4.0 6.0 0.00 0.00 0.00 55 1022.0
20260831155029 72 360 0.0 0.0 0.00 0.00 0.00 57 1022.0
20260831154530 72 334 0.0 1.0 0.00 0.00 0.00 57 1022.0
20260831154030 72 360 0.0 0.0 0.00 0.00 0.00 58 1022.0
20260831153529 73 132 4.0 4.0 0.00 0.00 0.00 56 1022.0
20260831153029 73 360 0.0 0.0 0.00 0.00 0.00 55 1022.0
20260831152529 72 322 0.0 0.0 0.00 0.00 0.00 57 1022.0
20260831152029 72 253 0.0 1.0 0.00 0.00 0.00 56 1022.0
20260831151529 71 360 0.0 0.0 0.00 0.00 0.00 58 1022.0
20260831151029 71 34 1.0 3.0 0.00 0.00 0.00 57 1022.0
20260831150529 71 360 0.0 0.0 0.00 0.00 0.00 54 1023.0
20260831150029 71 337 4.0 5.0 0.00 0.00 0.00 49 1023.0
20260831145530 70 360 0.0 0.0 0.00 0.00 0.00 49 1023.0
20260831145029 69 360 0.0 0.0 0.00 0.00 0.00 49 1023.0
20260831144529 68 360 0.0 0.0 0.00 0.00 0.00 52 1023.0
20260831144029 67 84 0.0 0.0 0.00 0.00 0.00 54 1023.0
20260831143530 67 71 1.0 2.0 0.00 0.00 0.00 54 1023.0
20260831143029 66 164 3.0 4.0 0.00 0.00 0.00 56 1023.0
20260831142529 65 106 0.0 0.0 0.00 0.00 0.00 56 1023.0
20260831142030 64 219 2.0 2.0 0.00 0.00 0.00 62 1023.0
20260831141529 63 353 1.0 4.0 0.00 0.00 0.00 65 1023.0
20260831141029 63 360 0.0 0.0 0.00 0.00 0.00 65 1023.0
20260831140530 63 336 0.0 0.0 0.00 0.00 0.00 63 1023.0
20260831140029 62 349 3.0 5.0 0.00 0.00 0.00 63 1023.0
20260831135529 60 347 4.0 6.0 0.00 0.00 0.00 67 1023.0
20260831135030 60 24 2.0 3.0 0.00 0.00 0.00 72 1023.0
20260831134529 59 21 3.0 3.0 0.00 0.00 0.00 74 1023.0
20260831134030 59 41 4.0 4.0 0.00 0.00 0.00 77 1023.0
20260831133529 59 38 4.0 4.0 0.00 0.00 0.00 77 1022.0
20260831133029 59 42 4.0 4.0 0.00 0.00 0.00 76 1022.0
20260831132529 59 59 2.0 3.0 0.00 0.00 0.00 75 1022.0
20260831132030 58 54 2.0 3.0 0.00 0.00 0.00 76 1022.0
20260831131530 58 62 2.0 2.0 0.00 0.00 0.00 77 1022.0
20260831131029 58 56 2.0 2.0 0.00 0.00 0.00 79 1022.0
20260831130529 58 54 3.0 4.0 0.00 0.00 0.00 79 1022.0
20260831130030 57 49 4.0 5.0 0.00 0.00 0.00 78 1022.0
20260831125530 57 98 1.0 4.0 0.00 0.00 0.00 78 1022.0
20260831125029 57 14 0.0 0.0 0.00 0.00 0.00 78 1022.0
20260831124529 57 360 0.0 0.0 0.00 0.00 0.00 78 1022.0
20260831124030 57 25 3.0 4.0 0.00 0.00 0.00 78 1022.0
20260831123529 57 357 1.0 3.0 0.00 0.00 0.00 78 1022.0
20260831123030 57 360 0.0 0.0 0.00 0.00 0.00 78 1022.0
20260831122529 57 57 1.0 3.0 0.00 0.00 0.00 77 1022.0
20260831122029 57 360 0.0 0.0 0.00 0.00 0.00 77 1022.0
20260831121530 57 360 0.0 0.0 0.00 0.00 0.00 76 1022.0
20260831121029 58 74 0.0 1.0 0.00 0.00 0.00 76 1022.0
20260831120529 58 141 1.0 2.0 0.00 0.00 0.00 76 1022.0
20260831120029 58 44 3.0 4.0 0.00 0.00 0.00 77 1022.0
20260831115529 58 49 3.0 4.0 0.00 0.00 0.00 75 1022.0
20260831115029 59 79 2.0 3.0 0.00 0.00 0.00 74 1022.0
20260831114529 59 69 3.0 4.0 0.00 0.00 0.00 74 1022.0
20260831114029 59 360 0.0 0.0 0.00 0.00 0.00 74 1022.0
20260831113529 60 52 3.0 3.0 0.00 0.00 0.00 75 1022.0
20260831113030 60 41 3.0 4.0 0.00 0.00 0.00 74 1022.0
20260831112529 60 60 0.0 0.0 0.00 0.00 0.00 72 1022.0
20260831112029 60 360 0.0 0.0 0.00 0.00 0.00 71 1022.0
20260831111529 60 69 0.0 2.0 0.00 0.00 0.00 71 1022.0
20260831111031 60 48 0.0 2.0 0.00 0.00 0.00 71 1022.0
20260831110529 59 70 4.0 4.0 0.00 0.00 0.00 70 1022.0
20260831110032 59 51 3.0 4.0 0.00 0.00 0.00 72 1022.0
20260831105529 59 54 4.0 5.0 0.00 0.00 0.00 73 1022.0
20260831105029 58 119 3.0 4.0 0.00 0.00 0.00 75 1022.0
20260831104529 58 60 3.0 3.0 0.00 0.00 0.00 75 1022.0
20260831104029 58 87 1.0 2.0 0.00 0.00 0.00 76 1022.0
20260831103530 58 34 4.0 5.0 0.00 0.00 0.00 76 1022.0
20260831103030 58 360 0.0 0.0 0.00 0.00 0.00 76 1022.0
20260831102529 58 31 4.0 5.0 0.00 0.00 0.00 76 1022.0
20260831102029 58 26 4.0 4.0 0.00 0.00 0.00 75 1022.0
20260831101529 58 360 0.0 0.0 0.00 0.00 0.00 73 1022.0
20260831101030 58 360 0.0 0.0 0.00 0.00 0.00 71 1022.0
20260831100531 59 79 4.0 4.0 0.00 0.00 0.00 72 1022.0
20260831100030 59 41 4.0 5.0 0.00 0.00 0.00 73 1022.0
20260831095529 59 40 4.0 4.0 0.00 0.00 0.00 74 1022.0
20260831095029 60 360 0.0 0.0 0.00 0.00 0.00 72 1022.0
20260831094529 60 12 2.0 3.0 0.00 0.00 0.00 70 1022.0
20260831094029 60 52 2.0 2.0 0.00 0.00 0.00 70 1022.0
20260831093529 61 51 3.0 4.0 0.00 0.00 0.00 68 1022.0
20260831093030 61 67 0.0 2.0 0.00 0.00 0.00 66 1022.0
20260831092529 61 28 0.0 2.0 0.00 0.00 0.00 64 1022.0
20260831092029 62 15 1.0 2.0 0.00 0.00 0.00 64 1022.0
20260831091529 62 20 2.0 4.0 0.00 0.00 0.00 63 1022.0
20260831091029 62 16 4.0 5.0 0.00 0.00 0.00 63 1022.0
20260831090529 61 7 2.0 5.0 0.00 0.00 0.00 63 1022.0
20260831090029 61 8 5.0 7.0 0.00 0.00 0.00 63 1022.0
20260831085529 60 360 0.0 0.0 0.00 0.00 0.00 69 1022.0
20260831085030 60 51 2.0 3.0 0.00 0.00 0.00 71 1022.0
20260831084529 60 22 1.0 3.0 0.00 0.00 0.00 71 1022.0
20260831084029 59 21 4.0 4.0 0.00 0.00 0.00 72 1022.0
20260831083529 59 37 3.0 4.0 0.00 0.00 0.00 73 1022.0
20260831083029 60 35 3.0 4.0 0.00 0.00 0.00 72 1022.0
20260831082529 60 45 3.0 4.0 0.00 0.00 0.00 71 1022.0
20260831082029 60 360 0.0 0.0 0.00 0.00 0.00 70 1022.0
20260831081529 60 55 3.0 4.0 0.00 0.00 0.00 70 1022.0
20260831081030 60 360 0.0 0.0 0.00 0.00 0.00 68 1022.0
20260831080529 60 63 0.0 1.0 0.00 0.00 0.00 68 1022.0
20260831080029 60 360 0.0 0.0 0.00 0.00 0.00 70 1022.0
20260831075529 60 62 2.0 4.0 0.00 0.00 0.00 70 1022.0
20260831075029 60 48 2.0 3.0 0.00 0.00 0.00 70 1022.0
20260831074529 60 360 0.0 0.0 0.00 0.00 0.00 69 1022.0
20260831074033 61 360 0.0 0.0 0.00 0.00 0.00 68 1022.0
20260831073529 61 360 0.0 0.0 0.00 0.00 0.00 69 1022.0
20260831073029 61 360 0.0 0.0 0.00 0.00 0.00 66 1022.0
20260831072529 61 360 0.0 0.0 0.00 0.00 0.00 66 1022.0
20260831072029 62 360 0.0 0.0 0.00 0.00 0.00 66 1022.0
20260831071529 61 360 0.0 0.0 0.00 0.00 0.00 65 1022.0
20260831071029 61 360 0.0 0.0 0.00 0.00 0.00 67 1022.0
20260831070530 60 360 0.0 0.0 0.00 0.00 0.00 71 1022.0
20260831070029 60 30 1.0 2.0 0.00 0.00 0.00 72 1022.0
20260831065529 60 52 1.0 3.0 0.00 0.00 0.00 71 1022.0
20260831065029 61 43 1.0 4.0 0.00 0.00 0.00 71 1022.0
20260831064529 61 28 1.0 3.0 0.00 0.00 0.00 71 1022.0
20260831064029 61 360 0.0 0.0 0.00 0.00 0.00 70 1022.0
20260831063530 61 17 1.0 3.0 0.00 0.00 0.00 69 1022.0
20260831063030 61 349 0.0 0.0 0.00 0.00 0.00 70 1022.0
20260831062536 61 34 3.0 9.0 0.00 0.00 0.00 70 1022.0
20260831062029 62 360 0.0 0.0 0.00 0.00 0.00 70 1022.0
20260831061529 62 360 0.0 0.0 0.00 0.00 0.00 70 1022.0
20260831061030 62 360 0.0 0.0 0.00 0.00 0.00 69 1022.0
20260831060529 62 360 0.0 0.0 0.00 0.00 0.00 67 1022.0
20260831060029 62 360 0.0 0.0 0.00 0.00 0.00 69 1022.0
20260831055529 62 360 0.0 0.0 0.00 0.00 0.00 69 1022.0
20260831055029 62 360 0.0 0.0 0.00 0.00 0.00 69 1022.0
20260831054528 62 360 0.0 0.0 0.00 0.00 0.00 68 1022.0
20260831054029 62 360 0.0 0.0 0.00 0.00 0.00 66 1022.0
20260831053529 62 360 0.0 0.0 0.00 0.00 0.00 64 1022.0
20260831053029 63 360 0.0 0.0 0.00 0.00 0.00 64 1022.0
20260831052529 63 360 0.0 0.0 0.00 0.00 0.00 65 1022.0
20260831052029 63 360 0.0 0.0 0.00 0.00 0.00 64 1022.0
20260831051530 63 360 0.0 0.0 0.00 0.00 0.00 65 1022.0
20260831051029 64 360 0.0 0.0 0.00 0.00 0.00 64 1022.0
20260831050530 64 348 6.0 7.0 0.00 0.00 0.00 63 1022.0
20260831050030 64 360 0.0 0.0 0.00 0.00 0.00 62 1022.0
20260831045529 64 360 6.0 7.0 0.00 0.00 0.00 62 1022.0
20260831045029 64 360 0.0 0.0 0.00 0.00 0.00 62 1022.0
20260831044532 64 360 0.0 0.0 0.00 0.00 0.00 64 1022.0
20260831044029 64 330 4.0 5.0 0.00 0.00 0.00 63 1022.0
20260831043529 64 322 0.0 0.0 0.00 0.00 0.00 62 1022.0
20260831043029 64 353 4.0 5.0 0.00 0.00 0.00 62 1022.0
20260831042529 64 343 4.0 5.0 0.00 0.00 0.00 61 1022.0
20260831042029 64 360 0.0 0.0 0.00 0.00 0.00 61 1022.0
20260831041531 65 360 0.0 0.0 0.00 0.00 0.00 61 1022.0
20260831041030 65 360 0.0 0.0 0.00 0.00 0.00 61 1022.0
20260831040529 65 349 0.0 0.0 0.00 0.00 0.00 61 1022.0
20260831040029 66 356 5.0 5.0 0.00 0.00 0.00 61 1022.0
20260831035529 66 345 4.0 5.0 0.00 0.00 0.00 60 1022.0
20260831035029 66 260 2.0 3.0 0.00 0.00 0.00 61 1022.0
20260831034530 66 209 2.0 2.0 0.00 0.00 0.00 60 1021.0
20260831034029 66 348 4.0 5.0 0.00 0.00 0.00 60 1021.0
20260831033529 66 278 3.0 5.0 0.00 0.00 0.00 60 1021.0
20260831033030 67 202 2.0 3.0 0.00 0.00 0.00 61 1021.0
20260831032530 67 357 5.0 5.0 0.00 0.00 0.00 61 1022.0
20260831032029 67 355 5.0 5.0 0.00 0.00 0.00 60 1022.0
20260831031530 67 204 2.0 2.0 0.00 0.00 0.00 60 1021.0
20260831031029 67 7 4.0 4.0 0.00 0.00 0.00 60 1021.0
20260831030529 68 346 4.0 4.0 0.00 0.00 0.00 59 1021.0
20260831030029 68 344 3.0 4.0 0.00 0.00 0.00 59 1021.0
20260831025529 68 356 4.0 4.0 0.00 0.00 0.00 58 1021.0
20260831025029 68 360 4.0 4.0 0.00 0.00 0.00 58 1021.0
20260831024529 69 19 5.0 5.0 0.00 0.00 0.00 58 1021.0
20260831024029 69 26 4.0 5.0 0.00 0.00 0.00 58 1021.0
20260831023529 69 358 4.0 5.0 0.00 0.00 0.00 57 1021.0
20260831023030 69 8 4.0 5.0 0.00 0.00 0.00 59 1021.0
20260831022529 69 3 0.0 0.0 0.00 0.00 0.00 60 1021.0
20260831022029 69 33 1.0 4.0 0.00 0.00 0.00 59 1021.0
20260831021529 69 47 2.0 4.0 0.00 0.00 0.00 59 1021.0
20260831021029 69 360 0.0 0.0 0.00 0.00 0.00 60 1021.0
20260831020529 69 360 0.0 0.0 0.00 0.00 0.00 59 1021.0
20260831020029 70 360 0.0 0.0 0.00 0.00 0.00 59 1021.0
20260831015530 70 360 0.0 0.0 0.00 0.00 0.00 58 1021.0
20260831015029 71 351 0.0 0.0 0.00 0.00 0.00 57 1021.0